Location: Newark
(21.1200°N, 73.4000°E)
Time: 00:14:02
(UTC+00:00)

Vanguard 1 Rocket - Pass Details

Date: 21 January 2021
Orbit: 654 x 4223 km, 34.3° (Epoch: 06 March)

Event Time Altitude Azimuth Distance (km) Brightness Sun altitude
Rises 16:14:09 0° 269° (W) 4,781 11.8 -47.1°
Reaches altitude 10° 16:17:53 10° 254° (WSW) 4,273 11.3 -48.0°
Maximum altitude 16:26:34 22° 209° (SSW) 4,380 10.9 -50.0°
Drops below altitude 10° 16:39:38 10° 166° (SSE) 6,538 11.6 -53.0°
Sets 16:47:52 0° 154° (SSE) 8,083 12.1 -54.9°
